Shelbyville, IN

1:29 PM EDT on August 20, 2017 (GMT -0400)
Shelbyville Municipal

Weather History for KGEZ - October, 2013

Change the Weather History Date:

Friday, October 18, 2013

  Actual Average Record
Temperature  
Mean Temperature 55 °F 53 °F  
Max Temperature 68 °F 65 °F 82 °F (2016)
Min Temperature 42 °F 42 °F 26 °F (2015)
Degree Days  
Heating Degree Days 10 12  
Month to date heating degree days 83 172  
Since 1 July heating degree days 122 257  
Cooling Degree Days 0 0  
Month to date cooling degree days 35 11  
Year to date cooling degree days 1179 910  
Growing Degree Days 5 (Base 50)    
Moisture  
Dew Point 43 °F    
Average Humidity 66    
Maximum Humidity 89    
Minimum Humidity 42    
Precipitation  
Precipitation 0.00 in 0.10 in 1.52 in (2004)
Month to date precipitation 2.49 1.88  
Year to date precipitation 25.93 35.33  
Sea Level Pressure  
Sea Level Pressure 29.97 in    
Wind  
Wind Speed 9 mph (SSW)    
Max Wind Speed 21 mph    
Max Gust Speed 25 mph    
Visibility 8 miles    
Events      
T = Trace of Precipitation, MM = Missing Value Source: NWS Daily Summary

Daily Weather History Graph

Daily Weather History Graph

Search for Another Location

Airport or City:

Trip Planner

Search our weather history database for the weather conditions in past years. The results will help you decide how hot, cold, wet, or windy it might be!

Date:

Astronomy

Oct. 18, 2013 Rise Set
Actual Time 7:56 AM EDT 6:59 PM EDT
Civil Twilight 7:29 AM EDT 7:26 PM EDT
Nautical Twilight 6:58 AM EDT 7:57 PM EDT
Astronomical Twilight 6:26 AM EDT 8:28 PM EDT
Moon 6:49 PM EDT (10/18) 7:31 AM EDT (10/18)
Length of Visible Light 11h 57m
Length of Day
11h 02m
Full, 100% of the Moon is Illuminated
Oct 18
Full
Oct 18
Full
Oct 26
Last Quarter
Nov 3
New
Nov 10
First Quarter

Hourly Weather History & Observations

Time (EDT) Temp. Windchill Dew Point Humidity Pressure Visibility Wind Dir Wind Speed Gust Speed Precip Events Conditions
12:53 AM 44.1 °F 40.8 °F 41.0 °F 89% 29.97 in 10.0 mi South 5.8 mph - N/A   Clear
1:53 AM 44.1 °F 41.5 °F 41.0 °F 89% 29.97 in 9.0 mi South 4.6 mph - N/A   Clear
2:53 AM 45.0 °F 41.8 °F 41.0 °F 86% 29.98 in 8.0 mi South 5.8 mph - N/A   Clear
3:53 AM 45.0 °F 41.2 °F 41.0 °F 86% 29.97 in 7.0 mi South 6.9 mph - N/A   Clear
4:53 AM 44.1 °F 40.1 °F 41.0 °F 89% 29.98 in 6.0 mi South 6.9 mph - N/A   Clear
5:53 AM 44.1 °F 39.5 °F 41.0 °F 89% 29.98 in 5.0 mi South 8.1 mph - N/A   Clear
6:53 AM 44.1 °F 39.5 °F 41.0 °F 89% 29.98 in 5.0 mi South 8.1 mph - N/A   Clear
7:53 AM 44.1 °F 40.1 °F 41.0 °F 89% 29.99 in 5.0 mi South 6.9 mph - N/A   Clear
8:53 AM 46.0 °F 41.4 °F 43.0 °F 89% 30.01 in 5.0 mi South 9.2 mph - N/A   Clear
9:53 AM 50.0 °F - 46.0 °F 86% 30.02 in 7.0 mi South 10.4 mph - N/A   Clear
10:53 AM 55.9 °F - 48.0 °F 75% 30.02 in 10.0 mi SSW 10.4 mph - N/A   Clear
11:53 AM 61.0 °F - 46.9 °F 60% 30.00 in 10.0 mi SSW 12.7 mph - N/A   Clear
12:53 PM 66.0 °F - 44.1 °F 45% 29.99 in 10.0 mi SW 13.8 mph - N/A   Scattered Clouds
1:53 PM 66.0 °F - 44.1 °F 45% 29.97 in 10.0 mi SW 15.0 mph 21.9 mph N/A   Clear
2:53 PM 64.9 °F - 43.0 °F 45% 29.95 in 10.0 mi SW 12.7 mph 20.7 mph N/A   Scattered Clouds
3:53 PM 66.0 °F - 44.1 °F 45% 29.93 in 10.0 mi SW 13.8 mph 21.9 mph N/A   Overcast
4:53 PM 66.0 °F - 43.0 °F 43% 29.92 in 10.0 mi SW 11.5 mph - N/A   Mostly Cloudy
5:53 PM 64.9 °F - 43.0 °F 45% 29.93 in 10.0 mi WSW 10.4 mph - N/A   Mostly Cloudy
6:53 PM 57.9 °F - 44.1 °F 60% 29.94 in 10.0 mi SW 5.8 mph - N/A   Partly Cloudy
7:53 PM 55.9 °F - 44.1 °F 64% 29.95 in 10.0 mi SW 4.6 mph - N/A   Mostly Cloudy
8:53 PM 54.0 °F - 44.1 °F 69% 29.97 in 10.0 mi NNW 9.2 mph - N/A   Scattered Clouds
9:53 PM 52.0 °F - 44.1 °F 74% 29.98 in 9.0 mi NNW 6.9 mph - N/A   Clear
10:53 PM 48.9 °F - 43.0 °F 80% 29.99 in 9.0 mi North 5.8 mph - N/A   Mostly Cloudy
11:53 PM 48.0 °F - 41.0 °F 77% 29.98 in 10.0 mi North 6.9 mph - N/A   Scattered Clouds